TimeCEST,TemperatureF,Dew PointF,Humidity,Sea Level PressureIn,VisibilityMPH,Wind Direction,Wind SpeedMPH,Gust SpeedMPH,PrecipitationIn,Events,Conditions,WindDirDegrees,DateUTC
12:00 AM,64.4,60.8,88,29.65,6.2,WSW,8.1,-,N/A,Rain-Thunderstorm,Light Rain,240,2013-09-29 22:00:00
12:30 AM,64.4,59.0,83,29.65,6.2,West,8.1,-,N/A,,Unknown,260,2013-09-29 22:30:00
1:00 AM,64.4,60.8,88,29.62,6.2,West,9.2,-,N/A,,Unknown,280,2013-09-29 23:00:00
1:30 AM,64.4,59.0,83,29.62,6.2,West,10.4,-,N/A,,Unknown,260,2013-09-29 23:30:00
2:00 AM,64.4,59.0,83,29.62,6.2,North,4.6,-,N/A,,Unknown,350,2013-09-30 00:00:00
2:30 AM,64.4,57.2,77,29.62,6.2,NW,3.5,-,N/A,,Unknown,310,2013-09-30 00:30:00
3:00 AM,62.6,57.2,82,29.59,6.2,WNW,3.5,-,N/A,,Unknown,300,2013-09-30 01:00:00
3:30 AM,62.6,57.2,82,29.59,6.2,WSW,4.6,-,N/A,,Unknown,240,2013-09-30 01:30:00
4:00 AM,64.4,57.2,77,29.59,6.2,WSW,8.1,-,N/A,,Unknown,250,2013-09-30 02:00:00
4:30 AM,64.4,57.2,77,29.59,6.2,West,6.9,-,N/A,,Unknown,260,2013-09-30 02:30:00
5:00 AM,62.6,57.2,82,29.59,6.2,NW,4.6,-,N/A,,Unknown,320,2013-09-30 03:00:00
5:30 AM,62.6,57.2,82,29.59,6.2,NNW,4.6,-,N/A,,Unknown,330,2013-09-30 03:30:00
6:00 AM,62.6,57.2,82,29.59,6.2,Variable,3.5,-,N/A,,Unknown,0,2013-09-30 04:00:00
6:30 AM,62.6,57.2,82,29.59,6.2,West,5.8,-,N/A,,Unknown,270,2013-09-30 04:30:00
7:00 AM,60.8,57.2,88,29.59,6.2,West,5.8,-,N/A,,Unknown,280,2013-09-30 05:00:00
7:30 AM,62.6,57.2,82,29.59,6.2,West,6.9,-,N/A,,Unknown,270,2013-09-30 05:30:00
8:00 AM,62.6,59.0,88,29.59,6.2,West,6.9,-,N/A,,Unknown,270,2013-09-30 06:00:00
8:30 AM,66.2,59.0,78,29.59,6.2,West,4.6,-,N/A,,Partly Cloudy,270,2013-09-30 06:30:00
9:00 AM,69.8,62.6,78,29.62,6.2,Variable,3.5,-,N/A,,Unknown,0,2013-09-30 07:00:00
9:30 AM,73.4,64.4,73,29.62,6.2,Variable,2.3,-,N/A,,Partly Cloudy,0,2013-09-30 07:30:00
10:00 AM,75.2,66.2,73,29.62,6.2,ESE,3.5,-,N/A,,Partly Cloudy,120,2013-09-30 08:00:00
10:30 AM,75.2,64.4,69,29.62,6.2,SSE,6.9,-,N/A,,Mostly Cloudy,160,2013-09-30 08:30:00
11:00 AM,73.4,64.4,73,29.62,6.2,SSE,8.1,-,N/A,,Mostly Cloudy,150,2013-09-30 09:00:00
11:30 AM,73.4,64.4,73,29.62,6.2,SSE,9.2,-,N/A,,Unknown,160,2013-09-30 09:30:00
12:00 PM,75.2,64.4,69,29.59,6.2,SSE,9.2,-,N/A,,Mostly Cloudy,160,2013-09-30 10:00:00
12:30 PM,75.2,62.6,65,29.59,6.2,SE,10.4,-,N/A,,Mostly Cloudy,140,2013-09-30 10:30:00
1:00 PM,75.2,62.6,65,29.59,6.2,SE,11.5,-,N/A,,Mostly Cloudy,140,2013-09-30 11:00:00
1:30 PM,77.0,59.0,54,29.59,6.2,ESE,6.9,-,N/A,,Mostly Cloudy,120,2013-09-30 11:30:00
2:00 PM,77.0,57.2,50,29.56,6.2,WSW,8.1,-,N/A,,Partly Cloudy,250,2013-09-30 12:00:00
2:30 PM,78.8,53.6,42,29.56,6.2,West,8.1,-,N/A,,Mostly Cloudy,270,2013-09-30 12:30:00
3:00 PM,78.8,53.6,42,29.56,6.2,West,8.1,-,N/A,,Scattered Clouds,270,2013-09-30 13:00:00
3:30 PM,78.8,51.8,39,29.56,6.2,West,10.4,-,N/A,,Partly Cloudy,270,2013-09-30 13:30:00
4:00 PM,80.6,53.6,39,29.56,6.2,West,9.2,-,N/A,,Partly Cloudy,260,2013-09-30 14:00:00
4:30 PM,80.6,51.8,37,29.56,6.2,West,10.4,-,N/A,,Partly Cloudy,280,2013-09-30 14:30:00
5:00 PM,77.0,51.8,41,29.56,6.2,West,11.5,-,N/A,,Unknown,260,2013-09-30 15:00:00
5:30 PM,77.0,51.8,41,29.59,6.2,West,11.5,-,N/A,,Unknown,270,2013-09-30 15:30:00
6:00 PM,75.2,51.8,44,29.59,6.2,WNW,8.1,-,N/A,,Partly Cloudy,290,2013-09-30 16:00:00
6:30 PM,75.2,51.8,44,29.59,6.2,WNW,6.9,-,N/A,,Partly Cloudy,300,2013-09-30 16:30:00
7:00 PM,75.2,51.8,44,29.59,6.2,NW,6.9,-,N/A,,Partly Cloudy,310,2013-09-30 17:00:00
7:30 PM,73.4,51.8,47,29.62,6.2,SSE,3.5,-,N/A,,Unknown,160,2013-09-30 17:30:00
8:00 PM,73.4,51.8,47,29.62,6.2,NNW,5.8,-,N/A,,Unknown,330,2013-09-30 18:00:00
8:30 PM,73.4,51.8,47,29.62,6.2,WNW,3.5,-,N/A,,Unknown,300,2013-09-30 18:30:00
9:00 PM,71.6,51.8,50,29.62,6.2,SSE,8.1,-,N/A,,Unknown,160,2013-09-30 19:00:00
9:30 PM,71.6,51.8,50,29.65,6.2,Variable,3.5,-,N/A,,Partly Cloudy,0,2013-09-30 19:30:00
10:00 PM,69.8,51.8,53,29.65,6.2,Variable,3.5,-,N/A,,Partly Cloudy,0,2013-09-30 20:00:00
10:30 PM,68.0,53.6,60,29.65,6.2,Variable,3.5,-,N/A,,Unknown,0,2013-09-30 20:30:00
11:00 PM,69.8,55.4,60,29.68,6.2,Variable,2.3,-,N/A,,Unknown,0,2013-09-30 21:00:00
11:30 PM,66.2,55.4,68,29.68,6.2,West,4.6,-,N/A,,Unknown,280,2013-09-30 21:30:00